Hourly Weather Cerekwica

Today, 13 June, Sunday

Time Temperature Precipitation Wind Pressure Humidity
00:00 +9°C° 0 mm 5 mps 750 mmHg 87%
01:00 +9°C° 0 mm 6 mps 750 mmHg 87%
02:00 +9°C° 0 mm 6 mps 750 mmHg 87%
03:00 +9°C° 0 mm 6 mps 751 mmHg 87%
04:00 +9°C° 0 mm 7 mps 751 mmHg 88%
05:00 +9°C° 0 mm 7 mps 751 mmHg 83%
06:00 +10°C° 0 mm 7 mps 752 mmHg 78%
07:00 +11°C° 0 mm 7 mps 752 mmHg 74%
08:00 +12°C° 0 mm 7 mps 753 mmHg 70%
09:00 +14°C° 0 mm 7 mps 753 mmHg 66%
10:00 +15°C° 0 mm 7 mps 753 mmHg 62%
11:00 +15°C° 0 mm 7 mps 754 mmHg 63%
12:00 +16°C° 0 mm 7 mps 754 mmHg 64%
13:00 +16°C° 0 mm 7 mps 754 mmHg 64%
14:00 +16°C° 0 mm 7 mps 755 mmHg 64%
15:00 +16°C° 0 mm 7 mps 755 mmHg 63%
16:00 +16°C° 0 mm 7 mps 755 mmHg 62%
17:00 +15°C° 0 mm 6 mps 755 mmHg 65%
18:00 +15°C° 0 mm 5 mps 755 mmHg 68%
19:00 +14°C° 0 mm 5 mps 756 mmHg 71%
20:00 +13°C° 0 mm 4 mps 756 mmHg 75%
21:00 +11°C° 0 mm 4 mps 756 mmHg 80%
22:00 +10°C° 0 mm 3 mps 757 mmHg 85%
23:00 +9°C° 0 mm 3 mps 757 mmHg 87%

Tomorrow, 14 June, Monday

Time Temperature Precipitation Wind Pressure Humidity
00:00 +9°C° 0 mm 3 mps 757 mmHg 89%
01:00 +8°C° 0 mm 3 mps 757 mmHg 92%
02:00 +8°C° 0 mm 2 mps 757 mmHg 93%
03:00 +8°C° 0 mm 2 mps 757 mmHg 94%
04:00 +8°C° 0 mm 2 mps 757 mmHg 94%
05:00 +10°C° 0 mm 2 mps 757 mmHg 89%
06:00 +13°C° 0 mm 2 mps 757 mmHg 84%
07:00 +15°C° 0 mm 2 mps 757 mmHg 79%
08:00 +16°C° 0 mm 3 mps 757 mmHg 73%
09:00 +18°C° 0 mm 3 mps 757 mmHg 67%
10:00 +19°C° 0 mm 3 mps 757 mmHg 61%
11:00 +20°C° 0 mm 3 mps 756 mmHg 58%
12:00 +21°C° 0 mm 3 mps 756 mmHg 55%
13:00 +21°C° 0 mm 2 mps 756 mmHg 52%
14:00 +23°C° 0 mm 2 mps 755 mmHg 52%
15:00 +23°C° 0 mm 2 mps 755 mmHg 51%
16:00 +23°C° 0 mm 2 mps 755 mmHg 51%
17:00 +21°C° 0 mm 2 mps 754 mmHg 57%
18:00 +20°C° 0 mm 2 mps 754 mmHg 64%
19:00 +19°C° 0 mm 2 mps 754 mmHg 71%
20:00 +18°C° 0 mm 3 mps 754 mmHg 72%
21:00 +17°C° 0 mm 3 mps 754 mmHg 74%
22:00 +14°C° 0 mm 3 mps 754 mmHg 75%
23:00 +14°C° 0 mm 3 mps 754 mmHg 76%

Day after tomorrow, 15 June, Tuesday

Time Temperature Precipitation Wind Pressure Humidity
00:00 +14°C° 0 mm 3 mps 753 mmHg 76%
01:00 +14°C° 0 mm 3 mps 753 mmHg 76%
02:00 +13°C° 0 mm 3 mps 753 mmHg 76%
03:00 +13°C° 0 mm 3 mps 753 mmHg 76%
04:00 +13°C° 0 mm 3 mps 753 mmHg 77%
05:00 +14°C° 0 mm 3 mps 753 mmHg 76%
06:00 +17°C° 0 mm 3 mps 753 mmHg 75%
07:00 +18°C° 0 mm 3 mps 753 mmHg 74%
08:00 +19°C° 0 mm 3 mps 753 mmHg 71%
09:00 +20°C° 0 mm 3 mps 753 mmHg 68%
10:00 +22°C° 0 mm 3 mps 753 mmHg 65%
11:00 +22°C° 0.4 mm 3 mps 753 mmHg 68%
12:00 +22°C° 0.4 mm 3 mps 753 mmHg 71%
13:00 +22°C° 0.4 mm 4 mps 753 mmHg 73%
14:00 +21°C° 0.8 mm 4 mps 753 mmHg 74%
15:00 +21°C° 0.8 mm 4 mps 753 mmHg 76%
16:00 +21°C° 0.8 mm 4 mps 753 mmHg 77%
17:00 +20°C° 0.1 mm 4 mps 753 mmHg 76%
18:00 +19°C° 0.1 mm 3 mps 753 mmHg 75%
19:00 +18°C° 0.1 mm 3 mps 753 mmHg 75%
20:00 +16°C° 0 mm 3 mps 754 mmHg 75%
21:00 +13°C° 0 mm 3 mps 754 mmHg 75%
22:00 +11°C° 0 mm 3 mps 754 mmHg 75%
23:00 +10°C° 0 mm 3 mps 755 mmHg 78%

16 June, Wednesday

Time Temperature Precipitation Wind Pressure Humidity
00:00 +10°C° 0 mm 3 mps 755 mmHg 81%
01:00 +9°C° 0 mm 2 mps 755 mmHg 84%
02:00 +9°C° 0 mm 2 mps 755 mmHg 86%
03:00 +9°C° 0 mm 2 mps 755 mmHg 88%
04:00 +9°C° 0 mm 2 mps 755 mmHg 89%
05:00 +10°C° 0 mm 2 mps 755 mmHg 83%
06:00 +13°C° 0 mm 2 mps 756 mmHg 77%
07:00 +15°C° 0 mm 2 mps 756 mmHg 71%
08:00 +16°C° 0 mm 1 mps 756 mmHg 65%
09:00 +19°C° 0 mm 1 mps 756 mmHg 60%
10:00 +20°C° 0 mm 1 mps 756 mmHg 54%
11:00 +21°C° 0 mm 1 mps 756 mmHg 51%
12:00 +22°C° 0 mm 1 mps 756 mmHg 48%
13:00 +23°C° 0 mm 1 mps 755 mmHg 46%
14:00 +23°C° 0 mm 2 mps 755 mmHg 46%
15:00 +23°C° 0 mm 2 mps 755 mmHg 47%
16:00 +23°C° 0 mm 2 mps 755 mmHg 47%
17:00 +21°C° 0 mm 2 mps 755 mmHg 54%
18:00 +20°C° 0 mm 2 mps 755 mmHg 61%
19:00 +19°C° 0 mm 2 mps 755 mmHg 68%
20:00 +17°C° 0 mm 2 mps 755 mmHg 70%
21:00 +16°C° 0 mm 2 mps 755 mmHg 71%
22:00 +13°C° 0 mm 3 mps 755 mmHg 73%
23:00 +13°C° 0 mm 3 mps 755 mmHg 75%

17 June, Thursday

Time Temperature Precipitation Wind Pressure Humidity
00:00 +12°C° 0 mm 3 mps 755 mmHg 77%
01:00 +12°C° 0 mm 3 mps 755 mmHg 79%
02:00 +12°C° 0 mm 3 mps 755 mmHg 81%
03:00 +11°C° 0 mm 3 mps 755 mmHg 83%
04:00 +11°C° 0 mm 3 mps 755 mmHg 85%
05:00 +13°C° 0 mm 3 mps 755 mmHg 80%
06:00 +15°C° 0 mm 4 mps 756 mmHg 75%
07:00 +17°C° 0 mm 4 mps 756 mmHg 70%
08:00 +19°C° 0 mm 4 mps 756 mmHg 65%
09:00 +20°C° 0 mm 4 mps 756 mmHg 60%
10:00 +22°C° 0 mm 5 mps 756 mmHg 56%
11:00 +22°C° 0 mm 5 mps 755 mmHg 54%
12:00 +23°C° 0 mm 5 mps 755 mmHg 52%
13:00 +25°C° 0 mm 5 mps 755 mmHg 49%
14:00 +25°C° 0 mm 5 mps 755 mmHg 50%
15:00 +25°C° 0 mm 5 mps 755 mmHg 51%
16:00 +25°C° 0 mm 5 mps 754 mmHg 52%
17:00 +23°C° 0 mm 4 mps 754 mmHg 59%
18:00 +22°C° 0 mm 4 mps 754 mmHg 66%
19:00 +20°C° 0 mm 3 mps 754 mmHg 72%
20:00 +19°C° 0 mm 3 mps 754 mmHg 75%
21:00 +18°C° 0 mm 3 mps 754 mmHg 77%
22:00 +16°C° 0 mm 3 mps 754 mmHg 80%
23:00 +16°C° 0 mm 3 mps 754 mmHg 81%

18 June, Friday

Time Temperature Precipitation Wind Pressure Humidity
00:00 +15°C° 0 mm 4 mps 754 mmHg 83%
01:00 +14°C° 0 mm 4 mps 754 mmHg 84%
02:00 +14°C° 0 mm 4 mps 754 mmHg 84%
03:00 +14°C° 0 mm 4 mps 754 mmHg 85%
04:00 +14°C° 0 mm 3 mps 754 mmHg 85%
05:00 +17°C° 0 mm 4 mps 754 mmHg 83%
06:00 +19°C° 0 mm 5 mps 754 mmHg 80%
07:00 +21°C° 0 mm 5 mps 754 mmHg 77%
08:00 +22°C° 0 mm 6 mps 754 mmHg 73%
09:00 +24°C° 0 mm 6 mps 754 mmHg 70%
10:00 +27°C° 0 mm 6 mps 753 mmHg 66%
11:00 +27°C° 0 mm 6 mps 753 mmHg 65%
12:00 +28°C° 0 mm 6 mps 753 mmHg 64%
13:00 +28°C° 0 mm 6 mps 753 mmHg 63%
14:00 +28°C° 0 mm 6 mps 753 mmHg 64%
15:00 +28°C° 0 mm 6 mps 753 mmHg 64%
16:00 +29°C° 0 mm 6 mps 753 mmHg 64%
17:00 +28°C° 0 mm 6 mps 752 mmHg 67%
18:00 +27°C° 0 mm 5 mps 752 mmHg 71%
19:00 +26°C° 0 mm 5 mps 752 mmHg 74%
20:00 +23°C° 0 mm 5 mps 752 mmHg 78%
21:00 +22°C° 0 mm 4 mps 753 mmHg 82%
22:00 +21°C° 0 mm 4 mps 753 mmHg 86%
23:00 +20°C° 0 mm 4 mps 753 mmHg 88%
Show more

We Need Your Consent

Meteoprog and our Service Providers may store and access personal data such as cookies, device identifiers or other similar technologies on your device and process such data to personalise content and ads, as well as provide social media features and to analyse the traffic.

  • Store and/or access information on your device

    Cookies, device identifiers or other information can be stored or accessed on your device for the purposes indicated above.

  • Personalised ads and content, ad and content measurement, audience insights, and products development

    Ads and content can be personalised based on a profile. More data can be added to better personalise ads and content. Ad and content performance can be measured. Insights about the audience who saw the ads and content can be derived. Such data can be used to develop or improve user’s experience, systems and software.

By clicking ‘I Agree’ you will allow the use of indicated cookies, device identifiers, web beacons or other similar technologies. Your settings can be changed in the browser on your device.

For certain purposes, legitimate interests may be relied on, rather than consent. You can read more about this in our Privacy and Cookie Policy.